Vorticity
8 10 13 15 16 16 14 12 9 8 7 6 5 5 5 4 3 2 2 2 2 3 5 8 7 3 2 2 1 4 8 8 12 12 5 6 11 23 22 5 12 21 13 8 7 4 0 3 5 1 2 3 0 2 3 4 4 3 3 6 3 -1 1 -0 2 10 8 6 7 5 5 6 6 7 5 4 11 10 3 5 7 6 8 8 10 12 10 9
6 6 7 9 13 15 17 16 14 12 9 8 7 6 6 5 5 3 3 2 2 2 3 6 7 7 3 2 1 1 6 8 10 9 5 8 8 15 15 4 12 17 11 8 4 4 2 3 2 -1 2 2 3 4 4 9 4 0 3 4 3 -2 2 -0 -2 9 10 6 7 3 5 6 6 8 4 4 14 13 3 3 7 7 8 8 11 12 11 9
6 6 6 6 7 9 13 16 17 17 14 12 9 7 7 6 6 5 4 2 2 2 2 4 5 8 6 2 2 1 3 6 7 7 9 9 5 10 10 7 12 12 11 7 1 4 2 2 1 0 4 3 3 0 5 11 2 -1 3 -0 -1 -2 3 3 1 12 12 7 7 5 6 6 6 9 7 6 12 11 4 3 6 7 7 9 11 12 11 9
5 6 6 6 6 6 7 9 13 16 18 17 14 11 8 7 7 6 6 5 3 2 1 3 3 6 8 4 3 1 -0 5 6 4 12 11 7 12 9 8 12 9 10 5 2 5 2 2 2 -0 1 0 0 -2 1 6 1 2 4 1 -1 0 7 6 4 14 12 6 7 7 6 6 6 9 10 8 9 9 6 5 5 6 7 10 11 10 12 11
5 5 5 6 6 7 6 6 7 9 13 17 19 17 13 9 7 7 7 6 5 3 1 2 2 4 7 7 4 2 -1 3 4 1 10 13 10 12 8 9 11 6 8 9 7 5 2 2 1 0 -1 -1 2 2 1 -0 0 1 2 4 2 2 7 5 6 14 11 3 5 7 6 7 8 10 10 10 13 13 9 8 8 6 6 9 11 8 11 13
5 5 5 5 5 6 6 7 7 6 7 10 15 18 19 16 11 8 7 7 7 6 4 2 2 2 5 9 5 2 1 1 4 3 7 10 12 15 9 8 8 6 9 12 9 2 2 5 4 3 1 2 2 1 2 1 3 -0 -2 1 -0 2 6 4 8 14 5 -2 7 14 9 6 8 11 11 12 17 17 11 9 10 7 4 6 9 8 9 14
7 6 6 6 6 6 6 6 7 7 7 6 8 11 16 19 18 14 9 7 7 8 7 3 3 2 2 6 6 5 1 0 5 5 6 8 13 17 11 7 7 9 11 11 10 3 4 6 5 3 1 1 -0 -1 0 2 5 -1 -4 0 -3 1 6 3 9 11 -1 2 18 20 11 6 7 11 13 13 14 13 9 8 9 6 5 5 7 9 8 12
10 9 8 8 7 7 6 6 6 6 7 7 7 7 8 13 18 20 16 11 7 8 9 7 4 2 2 3 6 8 1 -0 5 2 4 8 13 18 12 7 9 13 14 12 10 4 3 6 3 2 2 2 -0 -2 -2 -1 4 0 -4 1 -2 2 7 3 11 10 -0 11 20 15 12 9 8 9 10 11 10 10 9 9 9 9 8 8 7 7 7 9
10 10 11 10 10 9 8 8 8 7 7 7 7 7 7 7 11 16 20 19 13 8 8 11 8 4 3 2 4 7 2 2 3 -1 2 6 11 19 12 7 11 15 13 8 6 4 4 6 4 3 3 2 -1 -3 -0 -1 2 4 0 1 1 3 6 2 10 10 5 16 10 5 13 9 7 8 5 6 5 8 11 9 9 12 12 11 10 8 8 7
7 8 9 10 10 10 11 10 10 9 9 9 8 7 7 8 8 9 14 19 21 16 10 10 11 8 5 2 3 5 3 5 4 -0 2 5 8 16 13 7 10 14 10 5 7 9 9 6 1 1 -0 -2 -2 -4 1 0 0 6 3 2 4 5 7 5 8 9 10 15 3 1 9 5 6 7 5 6 3 4 10 10 7 9 11 11 12 10 8 8
6 7 6 7 8 8 9 9 10 10 10 10 10 10 9 8 8 8 8 12 17 20 18 12 10 11 8 5 3 2 4 6 6 3 1 4 6 12 15 9 7 11 9 7 10 10 7 1 -3 1 -0 -2 -0 -3 -1 0 -1 5 5 4 7 6 5 4 9 12 10 12 6 3 7 5 5 4 4 5 3 4 5 8 8 7 9 10 12 12 10 9
6 6 6 6 6 6 6 6 7 7 7 8 9 10 11 11 9 9 8 8 10 14 20 19 13 11 10 9 4 0 5 6 7 5 1 3 4 9 16 12 4 5 9 11 12 8 2 -1 0 2 -1 -2 1 -2 1 5 2 3 1 2 5 4 4 5 10 13 8 8 4 1 6 7 6 8 11 6 3 7 6 5 7 5 5 5 9 13 13 9
7 7 7 6 6 6 5 4 5 4 5 5 6 7 8 11 11 11 9 8 9 9 13 19 19 15 12 11 8 4 4 5 6 5 1 2 4 7 14 14 4 1 9 13 9 4 1 -0 -1 -3 -3 1 1 -5 1 8 7 3 -2 3 7 1 3 8 11 11 5 3 1 0 5 5 3 7 16 15 6 10 12 5 6 10 7 4 5 11 16 12
6 6 7 7 6 6 6 5 4 4 5 4 5 6 6 8 9 11 11 10 10 9 8 12 17 21 18 11 9 8 5 2 2 3 2 3 3 4 11 14 7 3 8 10 6 3 5 3 -3 -2 2 3 -1 -6 0 7 7 4 1 7 7 2 11 17 11 7 1 1 5 5 5 3 3 5 11 17 10 9 15 8 5 8 7 9 7 7 17 17
6 6 6 6 6 7 6 6 5 5 5 5 5 5 5 6 7 9 10 11 10 9 9 9 11 17 23 18 12 11 8 2 0 2 3 2 3 3 7 11 8 7 8 7 8 4 3 5 2 4 4 1 -1 -2 4 7 4 5 7 8 9 12 18 14 5 6 8 9 9 6 4 5 9 11 8 12 12 8 10 10 8 4 4 10 10 7 14 19
7 6 6 5 6 6 6 6 6 6 5 5 5 5 5 5 6 8 9 10 11 10 10 10 10 10 18 23 19 15 10 5 1 3 5 2 3 2 2 9 9 9 9 6 7 4 3 7 4 2 2 2 -1 0 7 7 5 8 9 7 8 13 11 6 7 10 11 9 7 3 2 3 8 15 11 8 12 10 8 8 10 8 4 6 9 8 10 17
8 7 7 5 6 5 6 7 6 7 6 5 6 5 6 5 4 6 8 9 9 11 11 10 11 9 11 18 23 20 12 9 5 2 6 5 5 3 1 8 10 9 9 7 5 5 8 6 1 -2 3 7 -3 1 13 9 10 15 15 10 4 7 8 9 16 12 2 -3 0 2 -1 -2 2 13 14 9 8 9 8 6 7 10 7 5 8 9 6 9
8 8 8 7 6 5 6 6 5 6 6 6 6 6 6 6 5 4 5 8 9 10 10 10 10 10 11 12 21 27 15 10 8 4 5 5 5 4 3 4 8 8 5 6 7 9 11 5 3 -1 -0 7 -2 3 11 -2 -5 0 16 28 14 8 7 4 11 9 0 -3 -1 1 -1 -3 -1 9 13 11 10 5 5 6 5 10 10 10 10 7 7 6
8 8 9 8 8 7 6 6 6 6 5 6 7 7 7 7 7 5 4 7 10 12 12 12 10 9 12 9 12 24 22 13 11 8 3 4 4 3 4 1 3 7 1 5 10 11 13 4 3 2 1 9 0 1 9 1 -7 -12 12 33 14 6 6 1 5 4 4 4 -0 0 0 -2 -3 4 9 9 12 7 5 9 7 8 9 10 11 7 6 4
9 8 8 9 8 8 8 7 7 6 6 5 6 7 8 8 8 7 5 4 6 10 11 13 13 10 12 11 7 14 25 22 14 11 4 2 6 3 4 2 0 3 1 6 11 11 11 2 2 7 7 10 3 -1 3 7 5 -5 8 15 -1 3 4 -1 3 -2 1 3 -4 -2 1 -0 -2 2 6 4 8 8 5 9 9 9 8 7 8 6 4 4
8 8 8 9 8 8 8 8 8 7 7 6 5 6 7 8 8 8 7 5 8 12 11 13 17 15 12 13 10 8 19 27 19 13 9 2 5 5 3 3 -0 -0 3 7 11 9 4 3 12 17 10 8 5 0 -3 4 7 -0 7 6 -5 -1 -4 -5 -0 -8 -4 1 -4 -2 0 3 2 2 6 2 4 9 5 6 10 10 9 8 6 3 3 7
8 7 8 8 8 9 8 8 8 8 8 6 6 6 6 7 8 9 9 8 12 14 12 13 17 19 16 11 12 8 8 28 28 15 12 6 4 6 3 3 2 2 3 1 6 7 1 10 20 18 12 7 3 1 -4 1 5 -0 5 8 -4 -9 -7 -2 -0 -6 -1 2 -1 0 2 5 1 -1 6 2 0 7 4 5 13 12 8 8 6 5 4 5
8 8 8 7 7 8 8 8 8 9 8 7 7 6 6 7 7 9 9 8 8 9 10 13 13 16 20 13 12 12 6 23 33 17 13 12 5 5 3 4 4 2 0 -2 3 2 1 20 25 12 10 6 0 2 0 1 6 3 3 13 5 -9 -3 1 -3 2 5 -1 -3 -2 2 4 -4 -6 1 1 1 3 -1 5 16 14 11 8 5 8 7 5
9 8 8 7 7 8 8 8 8 9 9 8 8 7 6 7 7 7 9 10 5 5 8 12 12 13 21 19 11 14 8 15 31 22 14 15 9 6 3 4 5 2 -1 -0 5 -1 -1 21 25 11 7 5 0 0 1 0 5 4 -2 15 17 -4 -3 -1 -7 0 1 -2 -4 -5 7 9 -4 -5 0 1 5 3 -5 3 15 12 12 14 9 10 10 7
9 9 9 8 7 8 9 8 8 9 9 9 8 7 7 6 8 7 9 12 4 2 6 7 11 12 20 24 15 13 8 10 30 28 15 14 13 10 5 4 4 3 2 -0 3 1 3 19 21 10 5 3 2 -0 2 1 1 3 -3 13 23 0 -5 1 -2 -3 -3 2 -1 -1 15 6 -8 2 1 -3 4 3 -4 4 16 11 7 13 12 14 15 10
8 9 9 9 8 8 9 8 8 8 8 10 8 8 8 6 7 7 7 12 5 3 8 5 9 13 17 22 18 15 10 12 29 28 16 15 14 12 7 4 4 5 4 -0 0 1 5 17 19 11 2 1 2 0 3 3 0 1 -3 11 22 3 -5 1 1 -1 -1 2 -3 -1 9 -2 0 13 -0 -5 5 2 -1 8 18 12 4 7 10 11 14 16
7 7 8 9 9 8 9 10 9 8 7 9 9 8 9 7 7 6 7 10 7 7 13 9 9 13 15 19 22 19 9 9 21 24 21 18 13 12 9 5 4 5 6 1 -1 2 6 15 18 10 2 1 3 1 2 5 4 2 -1 11 18 4 -4 -3 -4 -2 -2 -6 -7 -1 2 4 16 11 -3 6 12 3 4 13 14 7 1 4 5 4 7 13
6 6 7 7 9 7 8 10 9 8 7 8 9 9 9 7 6 6 6 7 8 10 11 9 5 6 12 19 25 24 13 8 16 23 27 21 14 14 11 8 6 4 8 3 -3 2 6 8 15 11 1 1 6 6 4 2 3 5 3 10 13 2 -3 -3 -6 -3 -3 -6 -2 -2 -5 12 22 5 4 15 9 5 7 8 4 -0 1 1 1 5 5 5
6 6 6 6 8 7 6 9 9 7 8 8 8 9 8 8 7 6 6 7 10 10 8 8 7 5 8 14 22 25 19 15 17 20 24 21 15 16 13 10 8 5 8 6 -0 5 6 4 13 11 -2 -1 6 8 5 0 1 6 7 7 7 1 -4 -0 -2 -3 -1 -2 2 2 -3 12 14 -2 5 12 11 16 9 1 2 2 5 2 -2 2 3 2
6 6 6 6 7 7 6 9 9 7 8 8 8 9 8 8 8 6 6 8 9 8 10 10 10 8 7 12 21 23 20 20 18 17 22 21 14 16 16 11 8 6 8 9 4 4 6 5 10 10 2 1 6 5 3 2 1 3 6 4 3 1 -4 0 1 -2 2 -1 1 7 -1 4 9 2 5 7 12 17 8 5 8 5 6 4 2 1 -1 2
7 7 7 7 6 7 7 9 8 7 8 8 8 9 8 7 7 5 6 9 8 7 10 10 8 9 7 10 19 21 18 19 19 16 19 22 13 11 15 12 7 6 6 9 7 5 6 6 5 9 10 6 4 4 3 3 3 1 5 5 2 1 -2 0 3 1 5 1 1 6 -3 2 18 12 1 -2 -3 -0 1 4 5 7 4 0 8 7 -1 4
7 8 8 8 7 7 8 8 7 6 7 8 8 8 8 6 6 7 8 9 9 9 10 10 9 10 9 10 19 23 17 16 22 20 19 23 17 11 14 15 10 6 5 5 7 6 6 7 4 4 10 9 3 5 5 2 3 4 6 5 2 1 -2 1 3 2 5 1 -1 3 -2 4 16 11 5 3 0 5 8 2 3 13 5 -5 9 9 -1 8
7 8 8 8 8 7 8 7 7 7 7 8 8 8 6 6 5 8 12 11 10 10 8 8 8 9 11 12 17 23 19 16 22 22 19 22 20 13 15 18 13 9 9 6 6 7 7 8 7 5 9 12 5 3 8 4 1 5 7 6 5 1 -2 0 -0 0 6 3 0 1 -2 2 7 9 13 8 3 12 10 -3 1 14 6 -6 2 4 2 8
7 8 9 9 8 8 7 7 8 8 8 7 8 7 6 5 5 8 13 11 9 9 6 5 7 9 13 14 16 20 18 17 21 20 16 19 20 15 13 15 14 11 11 10 6 6 7 8 8 7 9 15 10 2 7 7 -1 2 8 6 7 3 -2 -2 -5 -3 6 8 5 0 -3 -2 -10 -14 -5 -1 4 8 -1 -7 0 10 9 3 3 6 10 8
9 9 11 10 9 9 8 8 9 8 8 8 7 7 6 5 6 10 13 10 8 8 7 8 8 8 12 14 14 16 17 18 22 22 14 11 15 17 17 18 15 12 9 10 10 6 7 7 7 6 3 8 14 7 6 9 0 1 7 4 7 7 1 -3 -6 -4 4 7 7 2 -4 -6 -10 -13 -6 0 5 1 -3 7 10 5 8 7 4 8 8 3
10 10 11 10 10 10 8 8 9 8 9 8 7 7 7 6 8 11 10 9 9 9 10 11 9 7 11 13 9 12 18 19 19 22 18 13 10 9 18 24 21 17 12 9 10 8 9 8 6 8 4 3 11 11 9 7 -0 1 7 5 7 8 3 -0 -5 -4 1 2 4 3 -3 -6 -6 -0 3 3 7 3 -1 7 10 7 8 1 -2 7 8 3
12 12 12 12 12 11 9 8 9 9 9 8 8 7 7 7 10 11 10 9 9 9 10 10 8 9 12 11 8 9 16 18 15 17 18 18 11 1 7 21 23 21 19 15 13 11 10 9 7 9 8 4 6 10 13 11 3 1 5 7 9 6 3 4 -1 -5 -2 -1 0 1 0 -2 -5 -2 1 3 7 7 3 2 6 12 11 2 4 13 9 2
17 17 13 13 15 13 10 9 8 9 9 9 8 7 6 9 10 11 12 11 9 9 10 10 9 11 11 11 12 10 12 16 14 12 12 15 15 5 -0 14 27 25 19 18 19 15 11 11 10 10 9 7 5 4 9 14 10 4 2 8 11 6 4 6 3 -0 -1 -2 -1 0 -1 -1 -2 -2 2 3 3 7 10 6 4 9 11 8 13 15 6 1
20 21 15 13 15 13 11 10 8 9 9 8 9 8 8 10 12 13 12 10 9 8 9 10 10 10 9 12 16 11 9 14 11 7 8 10 14 11 -1 2 20 27 24 25 24 19 17 15 11 10 12 12 9 8 9 11 11 7 4 6 8 7 5 4 3 3 3 0 -0 2 1 -1 -0 1 3 4 4 8 9 1 -2 5 8 7 10 10 3 3
17 21 16 13 14 12 11 10 8 9 10 9 9 9 9 10 12 14 11 7 7 7 8 11 10 9 9 12 16 13 7 10 11 6 6 8 12 13 3 -3 5 13 19 27 28 24 25 24 13 6 11 16 14 13 13 12 9 6 7 8 9 9 7 4 2 -0 0 1 0 1 1 -0 -1 -0 3 5 3 4 3 0 3 5 3 5 8 5 -1 2
16 20 17 15 15 12 10 10 8 9 11 9 9 10 10 10 10 12 11 7 7 8 9 9 8 9 12 11 14 16 9 6 10 6 3 7 11 12 7 3 2 -1 3 16 24 24 26 30 21 8 8 16 15 12 10 11 11 7 6 8 9 8 7 5 3 1 1 1 1 1 -2 -1 -1 -4 -1 4 7 8 5 3 5 1 4 18 17 3 -3 1
16 20 15 15 17 12 9 10 9 9 10 10 11 11 10 10 10 11 10 7 7 8 8 10 11 12 15 14 12 14 11 6 6 6 4 3 7 12 10 5 2 -3 0 8 14 19 23 30 32 20 11 11 12 13 13 11 13 11 6 8 10 8 6 5 2 3 6 5 3 2 -2 -2 -0 -0 3 2 0 5 7 12 12 -0 3 22 20 4 0 3
18 21 15 17 20 13 9 10 9 9 10 9 11 10 8 9 9 10 11 9 9 9 8 10 13 12 13 13 12 11 11 10 6 6 8 2 1 10 10 4 2 2 5 6 5 8 13 23 34 30 20 11 7 14 19 15 15 15 8 6 10 10 7 6 3 2 8 9 3 2 2 -2 -3 0 5 2 -1 4 4 7 13 8 7 15 12 2 -1 -1
20 22 16 17 20 15 10 10 10 10 10 9 9 10 10 10 10 12 13 11 10 11 10 10 13 15 13 10 11 11 10 12 9 4 6 6 5 9 5 -1 0 2 6 7 4 5 8 15 25 29 26 16 7 11 18 14 14 15 10 4 7 10 8 8 7 5 9 10 3 1 3 0 0 5 8 8 9 13 10 4 5 9 13 15 10 2 -2 -3
21 21 17 18 21 17 12 12 11 11 11 9 11 12 12 12 13 13 13 10 9 10 10 11 13 15 14 9 10 12 9 10 11 6 5 8 9 8 3 0 4 6 9 10 6 7 10 10 17 29 32 20 5 4 9 13 15 13 10 8 8 12 10 7 6 5 6 9 5 5 6 1 0 4 8 9 5 5 14 18 17 15 15 14 8 1 1 3
20 20 17 17 18 17 15 13 10 11 12 10 10 13 13 12 13 14 15 14 11 9 7 9 13 13 13 10 10 14 14 10 9 10 8 5 4 5 3 4 7 9 12 12 6 7 8 3 6 23 40 36 19 10 10 14 18 16 12 9 9 13 14 9 2 -3 2 7 3 6 15 11 2 -1 4 12 10 6 11 16 23 28 20 10 6 7 12 13
20 20 19 16 15 15 15 13 10 10 13 11 9 11 12 12 12 13 15 15 12 10 8 8 11 12 12 11 9 11 16 13 7 9 10 2 -3 2 4 5 8 11 13 11 7 7 5 3 2 9 31 45 33 21 17 16 19 20 17 13 9 10 14 12 2 -4 3 7 1 7 18 14 9 10 15 22 18 8 3 2 16 31 24 15 16 19 21 17
19 19 18 16 14 14 14 14 11 10 12 12 10 11 12 13 13 11 12 13 13 12 10 8 11 12 9 10 9 7 13 16 9 7 11 5 -4 -2 3 4 4 10 14 9 5 6 2 5 6 1 15 38 38 27 20 17 19 17 13 16 15 9 9 8 4 7 12 6 -2 6 16 15 17 18 16 20 20 10 2 -2 6 20 20 16 15 12 13 13
16 16 16 15 14 14 14 15 13 9 12 14 12 12 13 11 12 12 11 13 13 12 11 10 12 13 9 7 9 7 8 15 14 9 11 9 2 1 5 6 1 4 16 14 5 4 1 0 4 -1 0 16 30 34 27 15 15 14 10 12 13 9 8 6 6 13 19 14 4 3 10 15 15 10 6 8 9 8 6 -0 4 16 17 13 11 5 3 4
15 14 14 14 13 12 13 15 15 9 9 14 12 10 12 12 11 12 12 11 12 11 11 11 12 15 11 5 9 9 6 12 17 16 11 8 9 9 5 2 -2 2 18 19 5 4 7 2 1 0 -1 2 10 26 35 23 14 13 9 10 10 7 8 12 14 13 13 14 8 3 12 16 5 -2 2 3 1 4 5 -1 7 19 14 6 4 -0 -1 2
15 14 14 13 12 11 12 14 17 12 6 10 13 9 9 13 11 11 12 12 12 11 11 10 12 15 12 6 7 9 7 10 15 16 13 7 8 12 6 -1 -4 2 17 16 5 8 11 5 1 -2 3 8 3 11 31 31 21 14 8 8 9 4 1 7 14 13 7 4 0 2 13 16 4 -4 -1 2 5 10 8 1 7 16 8 -1 -0 1 5 7
16 15 14 14 11 10 12 15 18 17 9 7 12 11 8 12 13 12 13 13 12 12 10 8 11 15 12 8 8 8 7 10 11 14 16 13 10 8 3 0 -1 2 12 11 8 13 11 5 4 -1 5 13 3 1 17 24 25 25 14 6 7 3 -2 -0 4 9 9 5 4 10 15 10 -0 -5 -3 1 6 13 15 13 16 16 4 -5 -5 -0 7 8
Height
5883 5882 5882 5881 5881 5881 5880 5880 5880 5880 5880 5881 5881 5882 5882 5883 5883 5884 5884 5885 5885 5886 5887 5887 5888 5888 5888 5888 5888 5888 5888 5887 5887 5887 5887 5887 5887 5887 5888 5888 5889 5890 5892 5893 5895 5896 5896 5897 5898 5899 5899 5900 5900 5900 5900 5900 5901 5901 5901 5902 5901 5901 5902 5903 5903 5903 5903 5902 5902 5902 5902 5901 5901 5901 5901 5901 5901 5901 5901 5901 5900 5901 5901 5902 5903 5902 5902 5903
5881 5881 5880 5880 5880 5879 5879 5879 5878 5878 5878 5879 5879 5879 5880 5881 5881 5882 5883 5883 5884 5884 5885 5886 5887 5887 5887 5887 5888 5888 5888 5887 5887 5887 5886 5886 5887 5887 5887 5888 5889 5890 5892 5894 5895 5895 5896 5897 5897 5898 5899 5900 5900 5900 5900 5900 5901 5901 5901 5902 5901 5901 5902 5902 5903 5904 5904 5904 5903 5903 5903 5902 5901 5901 5902 5902 5903 5902 5901 5901 5901 5901 5902 5902 5903 5903 5903 5904
5880 5879 5879 5879 5878 5878 5878 5877 5877 5877 5877 5877 5877 5877 5878 5878 5879 5880 5881 5881 5882 5882 5884 5885 5885 5886 5886 5887 5887 5887 5887 5887 5887 5886 5886 5886 5886 5886 5887 5887 5888 5890 5891 5893 5894 5895 5896 5896 5897 5897 5898 5899 5900 5900 5900 5900 5901 5901 5902 5902 5901 5902 5902 5902 5903 5904 5905 5905 5904 5904 5903 5902 5901 5901 5903 5903 5903 5903 5902 5902 5902 5902 5902 5903 5904 5904 5904 5904
5878 5878 5877 5877 5877 5877 5876 5876 5875 5875 5875 5875 5875 5875 5875 5876 5877 5878 5878 5879 5880 5880 5882 5883 5884 5885 5885 5886 5886 5886 5887 5887 5886 5886 5886 5886 5886 5886 5886 5887 5887 5888 5890 5891 5892 5894 5895 5896 5896 5897 5898 5899 5899 5900 5900 5901 5901 5901 5902 5902 5902 5903 5902 5903 5903 5904 5905 5905 5905 5905 5904 5903 5902 5902 5903 5904 5904 5903 5903 5903 5903 5903 5903 5903 5904 5905 5905 5905
5876 5876 5876 5876 5875 5875 5875 5874 5874 5874 5873 5873 5873 5873 5873 5874 5874 5875 5876 5877 5877 5878 5879 5881 5882 5883 5884 5884 5885 5885 5886 5886 5886 5886 5886 5886 5886 5886 5886 5886 5887 5887 5888 5890 5892 5893 5894 5895 5896 5896 5897 5898 5899 5899 5900 5901 5901 5901 5902 5902 5903 5903 5903 5903 5903 5904 5906 5906 5906 5905 5904 5903 5903 5903 5904 5904 5904 5903 5903 5903 5904 5904 5904 5904 5905 5905 5905 5905
5874 5874 5874 5874 5874 5873 5873 5873 5872 5872 5872 5872 5871 5871 5871 5871 5872 5873 5874 5875 5875 5876 5877 5878 5880 5881 5882 5883 5884 5884 5884 5885 5885 5885 5885 5885 5885 5885 5886 5886 5886 5886 5888 5889 5891 5892 5893 5894 5895 5895 5896 5897 5898 5899 5900 5900 5901 5901 5902 5903 5903 5904 5904 5903 5903 5904 5906 5906 5905 5905 5904 5903 5903 5904 5904 5904 5904 5904 5903 5904 5905 5905 5905 5905 5905 5906 5906 5906
5872 5872 5872 5872 5872 5871 5871 5871 5870 5870 5870 5870 5870 5869 5869 5869 5870 5870 5871 5872 5873 5874 5875 5876 5877 5879 5880 5881 5882 5883 5883 5883 5884 5884 5884 5884 5884 5884 5885 5885 5886 5886 5888 5889 5890 5892 5893 5894 5894 5895 5896 5897 5897 5898 5899 5900 5901 5902 5903 5904 5904 5904 5905 5904 5903 5904 5906 5906 5905 5905 5905 5904 5904 5904 5904 5904 5904 5904 5904 5904 5905 5905 5906 5905 5905 5906 5906 5907
5871 5870 5869 5869 5869 5869 5869 5869 5869 5868 5868 5868 5868 5868 5868 5867 5867 5868 5868 5869 5871 5872 5873 5874 5875 5876 5878 5879 5880 5881 5881 5882 5883 5883 5883 5883 5883 5884 5884 5885 5885 5886 5888 5889 5890 5891 5893 5893 5894 5895 5896 5897 5897 5898 5899 5900 5901 5902 5903 5904 5905 5905 5905 5904 5903 5904 5906 5906 5906 5906 5905 5905 5904 5905 5905 5905 5905 5905 5905 5905 5905 5906 5906 5906 5906 5906 5907 5907
5869 5868 5868 5867 5867 5867 5866 5866 5866 5866 5866 5866 5866 5866 5866 5866 5866 5866 5866 5867 5868 5869 5870 5871 5872 5874 5876 5877 5878 5879 5879 5880 5881 5882 5882 5882 5883 5883 5883 5884 5885 5886 5887 5888 5889 5890 5892 5893 5894 5895 5895 5896 5897 5897 5898 5900 5900 5901 5902 5904 5904 5905 5906 5904 5903 5904 5905 5906 5906 5906 5906 5906 5905 5906 5906 5906 5906 5906 5906 5906 5905 5906 5907 5907 5907 5907 5907 5908
5867 5867 5866 5865 5865 5865 5864 5864 5864 5864 5864 5864 5864 5864 5864 5864 5864 5864 5865 5865 5865 5866 5867 5869 5870 5871 5872 5874 5876 5876 5877 5878 5879 5880 5881 5881 5881 5882 5883 5883 5883 5884 5886 5886 5888 5890 5891 5892 5893 5893 5894 5895 5895 5896 5898 5899 5900 5901 5902 5903 5904 5904 5905 5904 5903 5904 5905 5906 5906 5906 5906 5906 5907 5907 5908 5908 5907 5907 5907 5907 5906 5906 5907 5907 5908 5908 5908 5908
5866 5865 5864 5864 5863 5863 5862 5862 5862 5861 5861 5861 5862 5862 5863 5862 5862 5862 5863 5863 5863 5863 5864 5865 5867 5868 5869 5872 5873 5873 5875 5877 5878 5879 5879 5879 5880 5881 5881 5882 5882 5882 5884 5885 5887 5889 5890 5890 5891 5892 5893 5894 5895 5896 5897 5898 5899 5901 5902 5903 5903 5904 5904 5904 5904 5904 5905 5906 5905 5905 5907 5907 5908 5909 5909 5909 5909 5909 5909 5908 5908 5907 5907 5908 5908 5908 5908 5909
5865 5864 5863 5862 5861 5861 5861 5860 5860 5859 5859 5859 5859 5860 5861 5860 5860 5860 5860 5860 5860 5860 5861 5861 5863 5864 5866 5868 5868 5870 5874 5875 5875 5876 5876 5877 5878 5879 5880 5880 5880 5881 5882 5883 5886 5887 5888 5888 5890 5891 5892 5893 5894 5895 5896 5898 5899 5900 5902 5903 5903 5904 5904 5904 5904 5904 5905 5905 5905 5906 5907 5908 5909 5910 5910 5910 5910 5910 5909 5909 5909 5908 5908 5909 5909 5909 5909 5909
5863 5862 5861 5860 5860 5859 5859 5859 5858 5857 5857 5857 5857 5858 5858 5859 5858 5858 5858 5858 5858 5858 5858 5858 5859 5861 5863 5864 5864 5868 5872 5872 5872 5873 5873 5875 5876 5876 5878 5878 5879 5879 5880 5881 5883 5884 5884 5886 5888 5889 5890 5892 5893 5893 5895 5897 5898 5899 5901 5901 5902 5903 5903 5904 5904 5904 5904 5905 5905 5906 5908 5909 5910 5910 5911 5911 5911 5911 5910 5910 5910 5909 5909 5909 5910 5910 5910 5910
5861 5861 5860 5859 5858 5858 5857 5857 5856 5855 5855 5855 5855 5855 5856 5856 5856 5856 5856 5856 5856 5855 5855 5856 5856 5857 5859 5859 5861 5866 5868 5868 5868 5868 5870 5872 5873 5874 5875 5876 5877 5878 5880 5881 5880 5880 5881 5883 5885 5887 5889 5891 5891 5891 5894 5896 5897 5898 5900 5900 5901 5902 5903 5903 5904 5904 5904 5905 5905 5906 5907 5908 5909 5911 5911 5911 5911 5911 5911 5911 5911 5910 5910 5910 5910 5910 5910 5910
5859 5859 5858 5857 5856 5856 5855 5855 5854 5853 5852 5852 5852 5853 5854 5854 5854 5854 5853 5853 5853 5852 5852 5853 5853 5854 5856 5855 5858 5863 5864 5863 5864 5865 5868 5869 5870 5871 5872 5873 5874 5876 5878 5879 5880 5880 5880 5881 5883 5886 5888 5889 5889 5890 5892 5895 5896 5897 5899 5900 5900 5901 5903 5904 5904 5905 5905 5905 5905 5906 5906 5907 5909 5911 5911 5911 5911 5911 5911 5911 5911 5911 5911 5911 5911 5911 5911 5911
5857 5856 5855 5855 5854 5853 5853 5853 5852 5851 5850 5850 5850 5850 5851 5851 5851 5851 5851 5851 5850 5850 5850 5850 5851 5852 5853 5852 5855 5859 5859 5859 5861 5864 5866 5867 5868 5869 5869 5871 5871 5873 5875 5877 5878 5878 5880 5881 5883 5885 5886 5887 5888 5888 5890 5893 5894 5896 5898 5899 5900 5901 5902 5903 5904 5905 5905 5905 5905 5906 5906 5907 5909 5911 5911 5912 5912 5912 5912 5912 5912 5912 5912 5912 5912 5912 5912 5912
5854 5853 5852 5852 5851 5851 5850 5850 5849 5849 5848 5847 5847 5847 5848 5848 5848 5848 5848 5848 5847 5847 5847 5848 5848 5849 5849 5849 5851 5854 5855 5856 5858 5861 5864 5866 5867 5867 5867 5869 5869 5870 5872 5873 5875 5876 5878 5880 5882 5884 5885 5885 5886 5886 5889 5892 5893 5895 5898 5898 5898 5900 5901 5902 5904 5905 5906 5906 5906 5907 5907 5908 5909 5911 5912 5912 5913 5913 5913 5913 5913 5912 5912 5912 5912 5912 5912 5912
5850 5850 5849 5849 5848 5847 5847 5847 5847 5846 5845 5845 5845 5845 5845 5845 5845 5845 5844 5844 5844 5844 5844 5845 5845 5845 5846 5846 5847 5849 5850 5852 5855 5858 5861 5862 5864 5865 5865 5866 5866 5866 5868 5870 5872 5874 5876 5878 5880 5881 5882 5883 5883 5884 5888 5891 5893 5896 5899 5899 5898 5898 5900 5901 5904 5905 5906 5906 5907 5908 5909 5909 5910 5911 5912 5913 5913 5913 5913 5913 5913 5913 5912 5912 5912 5912 5912 5913
5847 5847 5846 5845 5844 5844 5844 5844 5843 5843 5842 5841 5842 5842 5842 5842 5842 5842 5841 5841 5840 5840 5840 5841 5841 5842 5843 5842 5842 5844 5846 5848 5852 5854 5856 5858 5860 5862 5862 5863 5863 5863 5864 5867 5870 5872 5874 5875 5877 5878 5879 5881 5882 5884 5888 5891 5893 5896 5899 5899 5898 5898 5899 5901 5903 5904 5905 5906 5907 5909 5909 5910 5910 5911 5912 5913 5913 5913 5913 5913 5913 5913 5913 5912 5912 5912 5912 5913
5844 5843 5843 5842 5841 5840 5840 5840 5840 5839 5839 5838 5838 5839 5839 5839 5839 5839 5838 5838 5836 5836 5836 5837 5838 5839 5839 5838 5838 5840 5842 5844 5848 5850 5851 5854 5856 5858 5859 5859 5860 5860 5862 5865 5868 5870 5871 5872 5874 5876 5879 5882 5883 5884 5887 5890 5891 5894 5897 5898 5896 5896 5897 5899 5901 5903 5905 5906 5907 5908 5909 5910 5910 5911 5912 5913 5913 5913 5913 5913 5913 5913 5913 5912 5912 5912 5912 5912
5840 5840 5839 5838 5838 5836 5836 5836 5836 5835 5835 5835 5834 5834 5835 5835 5836 5836 5837 5836 5832 5830 5831 5832 5834 5836 5835 5834 5834 5836 5838 5840 5844 5846 5847 5849 5852 5855 5856 5856 5857 5859 5861 5864 5865 5867 5868 5870 5872 5877 5880 5882 5883 5884 5885 5888 5890 5892 5895 5897 5895 5894 5895 5897 5899 5901 5903 5905 5907 5908 5908 5909 5910 5911 5911 5912 5912 5913 5913 5912 5912 5912 5912 5912 5912 5912 5912 5912
5837 5836 5836 5835 5834 5833 5832 5832 5832 5831 5831 5831 5831 5830 5830 5831 5832 5832 5834 5835 5831 5826 5825 5826 5829 5833 5832 5829 5829 5831 5834 5837 5840 5842 5843 5845 5848 5851 5853 5854 5855 5858 5860 5861 5861 5863 5865 5868 5873 5877 5880 5881 5881 5882 5883 5885 5888 5890 5893 5895 5895 5893 5893 5895 5898 5900 5901 5903 5905 5906 5907 5908 5909 5910 5911 5911 5911 5912 5912 5912 5911 5911 5911 5911 5911 5911 5911 5911
5833 5833 5832 5831 5831 5829 5829 5828 5828 5827 5827 5827 5827 5826 5825 5826 5827 5828 5829 5833 5832 5825 5822 5822 5824 5828 5828 5825 5825 5828 5832 5834 5836 5837 5839 5841 5844 5846 5849 5851 5853 5855 5856 5857 5858 5861 5864 5868 5872 5875 5876 5877 5878 5880 5881 5882 5885 5887 5890 5893 5894 5893 5893 5895 5897 5899 5900 5901 5903 5904 5905 5906 5907 5909 5909 5910 5911 5911 5911 5911 5910 5911 5911 5910 5910 5910 5910 5910
5829 5829 5828 5827 5827 5826 5825 5825 5824 5823 5823 5823 5822 5822 5821 5821 5822 5824 5825 5828 5830 5825 5820 5819 5819 5821 5823 5822 5822 5824 5828 5830 5831 5832 5834 5837 5840 5842 5844 5847 5850 5852 5853 5854 5856 5860 5863 5867 5870 5871 5873 5875 5876 5877 5879 5880 5882 5885 5888 5891 5893 5893 5894 5895 5896 5897 5898 5899 5901 5902 5903 5904 5906 5907 5908 5909 5909 5910 5910 5910 5909 5910 5910 5910 5909 5909 5909 5909
5825 5825 5824 5823 5823 5822 5821 5820 5820 5819 5819 5818 5818 5818 5817 5817 5817 5819 5820 5822 5826 5823 5818 5817 5816 5816 5817 5819 5819 5819 5823 5826 5827 5827 5828 5833 5836 5838 5840 5843 5845 5849 5851 5852 5854 5857 5861 5865 5867 5868 5870 5872 5873 5875 5877 5879 5881 5883 5886 5890 5892 5893 5894 5894 5894 5895 5896 5897 5899 5900 5901 5902 5904 5905 5906 5907 5908 5908 5908 5908 5908 5909 5909 5909 5909 5909 5908 5908
5821 5820 5820 5819 5819 5818 5817 5816 5815 5815 5815 5814 5814 5814 5813 5813 5813 5814 5815 5816 5820 5819 5815 5814 5813 5813 5813 5814 5814 5815 5818 5823 5823 5821 5822 5828 5832 5833 5836 5838 5841 5845 5848 5849 5851 5854 5858 5861 5863 5864 5867 5869 5871 5873 5875 5877 5880 5881 5885 5889 5891 5891 5892 5892 5893 5893 5894 5896 5898 5899 5899 5900 5901 5903 5904 5905 5905 5906 5907 5907 5907 5907 5908 5908 5908 5908 5908 5907
5816 5816 5815 5814 5814 5814 5813 5812 5811 5811 5810 5810 5810 5810 5809 5809 5809 5809 5810 5811 5814 5814 5812 5811 5809 5810 5810 5809 5810 5811 5815 5819 5818 5815 5818 5823 5827 5828 5831 5833 5837 5841 5844 5845 5846 5851 5856 5858 5859 5861 5863 5866 5867 5870 5874 5876 5878 5880 5885 5888 5889 5889 5890 5891 5891 5892 5893 5895 5895 5896 5897 5897 5898 5901 5903 5902 5903 5904 5905 5906 5906 5906 5906 5907 5907 5907 5907 5907
5811 5811 5811 5810 5809 5809 5809 5807 5806 5806 5806 5806 5806 5805 5805 5805 5804 5805 5805 5805 5808 5809 5809 5808 5806 5806 5807 5806 5807 5807 5810 5813 5813 5812 5815 5819 5821 5823 5826 5830 5833 5837 5840 5841 5844 5849 5853 5855 5857 5858 5860 5861 5864 5869 5873 5875 5877 5881 5885 5887 5887 5888 5888 5889 5889 5890 5891 5891 5891 5893 5895 5895 5896 5899 5900 5901 5901 5902 5903 5904 5905 5905 5905 5906 5906 5906 5906 5906
5806 5806 5806 5805 5804 5804 5804 5803 5801 5801 5801 5801 5801 5800 5801 5801 5800 5801 5800 5800 5803 5804 5804 5805 5803 5802 5802 5804 5804 5803 5806 5809 5808 5807 5809 5812 5815 5818 5822 5827 5830 5833 5835 5837 5841 5846 5850 5852 5854 5856 5857 5860 5865 5869 5871 5873 5876 5881 5884 5885 5885 5886 5886 5887 5887 5888 5887 5887 5888 5891 5893 5893 5894 5896 5898 5899 5900 5901 5901 5902 5904 5904 5905 5905 5905 5905 5905 5905
5801 5801 5801 5801 5800 5799 5799 5798 5797 5796 5796 5796 5796 5796 5796 5796 5797 5796 5795 5796 5799 5800 5800 5801 5800 5799 5799 5800 5800 5799 5802 5803 5803 5803 5804 5806 5810 5813 5817 5822 5824 5827 5830 5832 5836 5841 5845 5848 5850 5852 5855 5859 5864 5867 5869 5871 5875 5879 5881 5881 5883 5883 5883 5884 5884 5885 5883 5882 5886 5890 5892 5891 5891 5892 5895 5898 5899 5900 5900 5901 5902 5903 5904 5904 5904 5904 5904 5904
5796 5795 5795 5796 5795 5794 5793 5792 5792 5792 5791 5791 5791 5791 5791 5791 5792 5790 5790 5794 5796 5795 5796 5796 5796 5796 5795 5796 5796 5795 5797 5799 5799 5799 5800 5802 5804 5806 5810 5814 5816 5820 5822 5825 5829 5834 5839 5842 5844 5847 5852 5856 5860 5863 5865 5869 5872 5874 5876 5878 5879 5879 5880 5880 5880 5880 5878 5879 5885 5889 5890 5889 5888 5890 5894 5896 5898 5899 5899 5899 5900 5902 5903 5904 5904 5903 5903 5903
5790 5790 5789 5790 5790 5789 5788 5786 5786 5786 5786 5787 5786 5786 5786 5786 5786 5785 5788 5792 5792 5791 5792 5791 5791 5792 5791 5791 5791 5791 5793 5794 5795 5795 5796 5798 5800 5801 5805 5808 5811 5813 5816 5819 5823 5828 5833 5836 5839 5843 5847 5851 5855 5857 5860 5864 5866 5868 5870 5873 5874 5874 5875 5875 5875 5876 5875 5878 5884 5887 5887 5885 5884 5889 5892 5893 5895 5896 5897 5897 5898 5900 5901 5902 5902 5902 5902 5901
5784 5784 5783 5783 5784 5783 5782 5781 5781 5780 5781 5782 5781 5780 5780 5780 5780 5782 5786 5788 5786 5787 5788 5786 5787 5788 5787 5787 5787 5787 5789 5790 5791 5792 5792 5794 5796 5799 5802 5805 5808 5811 5814 5818 5821 5824 5828 5831 5835 5838 5841 5846 5850 5852 5854 5857 5860 5863 5865 5868 5869 5869 5870 5870 5871 5873 5874 5878 5882 5884 5883 5880 5882 5888 5890 5892 5894 5895 5895 5895 5896 5897 5898 5900 5900 5899 5900 5900
5777 5777 5777 5776 5777 5777 5776 5776 5775 5774 5776 5776 5775 5774 5774 5774 5776 5779 5782 5782 5782 5782 5782 5782 5783 5783 5783 5783 5783 5784 5786 5786 5787 5787 5788 5790 5792 5794 5797 5800 5803 5806 5811 5815 5817 5820 5822 5826 5831 5835 5837 5841 5846 5849 5851 5855 5859 5861 5864 5866 5866 5865 5867 5868 5870 5872 5874 5878 5879 5880 5878 5876 5881 5887 5889 5890 5892 5893 5893 5893 5893 5894 5895 5897 5897 5897 5898 5899
5770 5770 5770 5769 5769 5770 5771 5770 5769 5768 5769 5770 5769 5768 5767 5769 5772 5775 5777 5777 5777 5777 5777 5778 5779 5779 5779 5779 5779 5781 5783 5783 5784 5784 5784 5786 5788 5791 5794 5797 5799 5802 5805 5808 5811 5814 5816 5822 5830 5834 5835 5840 5844 5847 5850 5854 5856 5859 5861 5862 5861 5862 5866 5868 5869 5871 5874 5875 5875 5875 5874 5874 5879 5884 5886 5888 5889 5890 5892 5892 5891 5892 5893 5894 5895 5896 5897 5897
5763 5762 5762 5762 5762 5763 5764 5763 5763 5762 5762 5762 5762 5761 5762 5765 5768 5769 5770 5771 5772 5773 5774 5774 5774 5775 5776 5775 5775 5777 5779 5780 5781 5780 5781 5783 5784 5787 5790 5794 5797 5799 5802 5804 5807 5810 5812 5818 5827 5829 5831 5836 5840 5844 5847 5849 5852 5854 5855 5856 5857 5861 5866 5868 5867 5869 5870 5870 5869 5870 5871 5873 5876 5879 5882 5885 5887 5888 5890 5890 5890 5890 5891 5892 5893 5895 5895 5895
5755 5754 5753 5754 5755 5756 5756 5756 5756 5755 5755 5755 5755 5756 5759 5760 5762 5764 5764 5765 5767 5768 5769 5769 5769 5770 5771 5771 5771 5773 5775 5777 5777 5777 5779 5779 5781 5783 5786 5789 5792 5795 5799 5802 5805 5807 5810 5815 5821 5824 5827 5832 5836 5841 5844 5846 5848 5849 5851 5853 5856 5860 5863 5864 5864 5865 5866 5865 5864 5866 5869 5871 5873 5875 5879 5883 5884 5886 5887 5888 5888 5888 5889 5890 5891 5893 5893 5893
5747 5746 5745 5746 5747 5748 5748 5748 5748 5748 5747 5747 5748 5751 5753 5755 5757 5759 5759 5760 5761 5762 5763 5764 5764 5765 5766 5767 5768 5769 5771 5772 5773 5774 5775 5775 5778 5781 5783 5786 5788 5791 5795 5798 5800 5803 5806 5810 5815 5819 5823 5827 5832 5836 5837 5840 5843 5845 5848 5851 5853 5855 5857 5858 5859 5858 5860 5861 5861 5863 5866 5868 5869 5872 5877 5880 5882 5884 5885 5886 5886 5886 5888 5889 5890 5891 5891 5891
5738 5738 5737 5738 5739 5739 5740 5740 5740 5740 5739 5740 5742 5745 5747 5750 5753 5753 5753 5754 5755 5756 5757 5758 5759 5760 5761 5763 5765 5766 5767 5768 5769 5770 5771 5772 5775 5778 5780 5782 5784 5788 5791 5793 5795 5797 5800 5803 5808 5814 5818 5821 5825 5826 5828 5834 5837 5840 5843 5845 5847 5850 5853 5854 5856 5856 5857 5858 5858 5860 5861 5862 5866 5870 5874 5877 5879 5881 5882 5883 5884 5885 5886 5887 5889 5890 5890 5890
5728 5729 5729 5730 5730 5730 5732 5732 5732 5732 5732 5734 5737 5738 5741 5743 5745 5746 5747 5747 5748 5750 5751 5753 5754 5755 5756 5758 5760 5762 5763 5764 5766 5767 5768 5770 5773 5776 5778 5778 5780 5783 5787 5789 5791 5793 5795 5797 5802 5808 5811 5813 5815 5817 5823 5831 5833 5834 5837 5838 5841 5845 5848 5850 5852 5853 5855 5855 5856 5858 5857 5858 5864 5869 5871 5874 5876 5878 5879 5881 5882 5883 5885 5886 5887 5888 5888 5888
5718 5719 5720 5721 5722 5721 5722 5723 5724 5725 5725 5727 5729 5731 5733 5736 5738 5740 5740 5740 5741 5743 5744 5746 5748 5749 5751 5753 5755 5758 5759 5760 5763 5764 5765 5768 5770 5773 5776 5777 5777 5780 5781 5783 5785 5788 5790 5792 5796 5801 5804 5806 5812 5817 5823 5829 5830 5832 5834 5835 5838 5842 5844 5846 5847 5848 5851 5852 5853 5854 5854 5856 5862 5866 5869 5872 5874 5875 5877 5878 5880 5881 5883 5884 5885 5885 5886 5886
5708 5709 5710 5712 5713 5713 5713 5715 5716 5717 5718 5720 5723 5724 5726 5728 5730 5732 5732 5733 5734 5736 5738 5741 5743 5745 5747 5749 5751 5754 5755 5757 5759 5761 5763 5765 5767 5770 5773 5774 5775 5775 5775 5776 5779 5784 5787 5788 5790 5794 5799 5804 5810 5815 5818 5822 5826 5830 5831 5834 5837 5839 5841 5842 5841 5844 5848 5849 5850 5852 5852 5854 5858 5863 5867 5870 5871 5873 5875 5876 5878 5879 5880 5882 5883 5883 5883 5883
5698 5699 5700 5702 5705 5705 5705 5706 5708 5709 5711 5713 5715 5716 5717 5719 5721 5724 5725 5726 5728 5731 5733 5736 5738 5740 5742 5744 5746 5748 5751 5753 5756 5758 5760 5762 5764 5767 5770 5771 5771 5771 5771 5771 5775 5779 5782 5782 5784 5789 5795 5800 5805 5808 5811 5814 5818 5821 5824 5828 5831 5833 5836 5839 5840 5844 5846 5846 5848 5850 5849 5852 5857 5860 5864 5867 5869 5871 5872 5874 5875 5876 5877 5879 5880 5880 5881 5881
5688 5690 5690 5692 5695 5696 5696 5698 5699 5701 5703 5704 5706 5708 5709 5711 5714 5717 5719 5721 5723 5725 5728 5731 5733 5735 5737 5740 5741 5743 5747 5749 5752 5754 5756 5759 5762 5765 5767 5768 5768 5768 5768 5768 5771 5774 5776 5777 5780 5784 5788 5792 5795 5798 5801 5805 5809 5813 5818 5822 5825 5829 5834 5837 5839 5842 5841 5841 5845 5846 5845 5850 5856 5858 5861 5864 5867 5869 5870 5871 5872 5873 5875 5876 5876 5877 5878 5879
5678 5680 5680 5682 5686 5687 5687 5689 5691 5692 5694 5696 5698 5701 5703 5704 5708 5711 5713 5715 5717 5720 5722 5725 5728 5730 5732 5735 5737 5740 5742 5744 5747 5750 5753 5757 5760 5761 5763 5764 5764 5765 5765 5766 5768 5770 5771 5773 5776 5779 5780 5784 5787 5791 5796 5802 5805 5809 5813 5817 5820 5824 5828 5832 5834 5836 5835 5837 5841 5842 5843 5849 5854 5855 5858 5862 5864 5866 5867 5868 5869 5870 5871 5872 5873 5874 5875 5876
5669 5670 5671 5672 5675 5677 5679 5680 5682 5684 5686 5689 5691 5694 5695 5697 5700 5704 5707 5710 5712 5713 5716 5719 5721 5724 5727 5730 5733 5735 5738 5740 5743 5747 5751 5754 5756 5757 5759 5761 5762 5762 5763 5764 5765 5767 5767 5769 5772 5775 5778 5782 5788 5793 5799 5803 5804 5807 5811 5814 5817 5821 5824 5828 5829 5829 5831 5835 5836 5838 5842 5847 5850 5853 5856 5859 5861 5863 5864 5865 5866 5866 5868 5869 5870 5871 5872 5873
5658 5660 5662 5663 5663 5667 5669 5671 5673 5675 5677 5680 5683 5685 5688 5690 5693 5696 5699 5702 5705 5707 5709 5712 5716 5719 5722 5725 5728 5731 5733 5735 5738 5742 5747 5750 5751 5754 5757 5759 5760 5760 5761 5762 5762 5763 5764 5765 5768 5772 5776 5781 5787 5794 5797 5799 5801 5805 5810 5813 5815 5818 5821 5823 5823 5825 5829 5832 5832 5836 5842 5844 5846 5851 5854 5856 5858 5860 5861 5862 5862 5864 5865 5866 5867 5868 5869 5870
5647 5650 5653 5654 5654 5656 5659 5661 5664 5666 5669 5672 5675 5677 5680 5682 5685 5688 5691 5695 5698 5701 5703 5706 5710 5713 5716 5719 5721 5724 5727 5729 5732 5737 5743 5746 5747 5751 5756 5757 5758 5759 5759 5759 5760 5761 5762 5763 5766 5770 5773 5778 5783 5788 5791 5794 5796 5800 5805 5809 5812 5815 5817 5819 5821 5824 5827 5827 5830 5836 5840 5841 5844 5849 5851 5854 5856 5857 5858 5859 5860 5861 5862 5863 5864 5865 5866 5867
5637 5639 5642 5644 5646 5647 5648 5651 5655 5658 5660 5663 5666 5669 5672 5675 5678 5680 5684 5688 5692 5695 5697 5700 5705 5707 5709 5712 5714 5717 5721 5723 5727 5732 5738 5742 5744 5748 5752 5753 5754 5756 5756 5756 5758 5760 5760 5762 5764 5766 5770 5774 5779 5782 5786 5790 5792 5795 5799 5803 5807 5811 5813 5816 5819 5822 5824 5825 5830 5835 5836 5837 5842 5846 5848 5850 5852 5853 5855 5856 5857 5858 5859 5860 5861 5862 5863 5864
5626 5629 5631 5634 5637 5639 5639 5641 5645 5649 5652 5654 5657 5661 5664 5668 5671 5674 5677 5681 5685 5689 5691 5695 5699 5702 5704 5707 5709 5712 5716 5719 5724 5729 5734 5738 5740 5744 5748 5750 5750 5752 5752 5753 5755 5756 5757 5760 5763 5764 5765 5769 5774 5778 5782 5785 5788 5791 5794 5799 5803 5806 5809 5812 5815 5818 5820 5823 5827 5830 5830 5833 5838 5842 5844 5846 5848 5849 5851 5852 5854 5855 5857 5857 5858 5859 5860 5861
5615 5618 5621 5624 5627 5630 5630 5632 5636 5640 5643 5646 5649 5652 5657 5660 5664 5667 5671 5675 5679 5683 5685 5688 5693 5697 5700 5702 5703 5707 5710 5713 5719 5724 5728 5731 5734 5738 5743 5746 5746 5746 5747 5750 5751 5752 5754 5758 5760 5761 5761 5764 5769 5774 5777 5781 5784 5786 5788 5793 5798 5801 5804 5808 5811 5814 5816 5819 5822 5824 5825 5829 5835 5838 5840 5842 5843 5845 5847 5849 5850 5852 5853 5854 5855 5856 5857 5858
5605 5608 5611 5614 5618 5621 5622 5624 5628 5630 5633 5637 5640 5644 5648 5653 5657 5660 5664 5669 5674 5677 5679 5682 5687 5692 5695 5696 5698 5701 5704 5707 5714 5719 5721 5724 5727 5731 5737 5741 5741 5740 5743 5746 5747 5748 5751 5754 5756 5758 5757 5760 5765 5770 5774 5777 5776 5776 5781 5789 5794 5797 5801 5804 5807 5810 5812 5815 5817 5818 5822 5828 5833 5835 5836 5838 5840 5841 5843 5845 5847 5848 5849 5850 5851 5852 5854 5855